NOAA 16 DEB, 41536

Orbit data source: Space-Track

NOAA 16 DEB, 41536 is space debris in SSO originally from a launch on Thu, 21 Sep 2000 UTC launched from the Air Force Western Test Range (AFWTR). Debris objects in space refer to the collection of defunct objects orbiting the Earth. Examples of debris include non-operational satellites, rocket bodies, and fragments generated from explosions, collisions, or faulty payload assembly.

Loading next visibility...
Identifier
41536, 2000-055NL
Orbit
SSO
Country
Flag of USUS
Related business
Manufacturer
Unknown
Mission
Spacecraft
Bus & Motor
Unknown
Mass
Unknown
Launch date (UTC)
2000-09-21 (25 years ago)
Launch vehicle
Unknown
Launch site
Air Force Western Test Range (AFWTR)
Object type
Payload
Rocket body
Debris
Shape & HBR
Unknown shape, 0.1 m
Radar Cross Section
Small (<0.1 m²)

Expand to show TLE details & history
Last TLE update: 19 hours ago

TLE from 19 hours ago
0 NOAA 16 DEB
1 41536U 00055NL  25352.73027981  .00004032  00000-0  14328-2 0  9992
2 41536  98.7362  89.4966 0010399   0.9995 359.1209 14.34909928513560
Epoch: 2025-12-18T17:31Z
TLE epoch observation values (Epoch: 2025-12-18T17:31:36.175Z)
Latitude
0.00001°
Longitude
99.01428°
Altitude
770.86 km
Speed
7.473 km/s
True Right ascension
05h 57m 59s
True Declination
0° 00' 00"
Sunlit
Object was in full shadow at epoch
Visualization orbit readout
Latitude
Unknown
Longitude
Unknown
Altitude
Unknown
Speed
Unknown
Apparent Right ascension
Unknown
Apparent Declination
Unknown
Sunlit
N/A
Visualization observer readout
Local Sidereal Time
11:27:28
Azimuth
Unknown
Elevation
Unknown
Doppler factor
Unknown
Orbital elements
Apogee altitude
779.942 km
Perigee altitude
765.07 km
Semi-major axis
7,150.643 km
Eccentricity
0.00104
Inclination
98.7362°
RAAN
89.4966°
Arg. of periapsis
0.9995°
True anomaly
359.11907°
Mean anomaly
359.1209°
Eccentric anomaly
359.11998°
Mean motion
3.58943 °/min
Orbital period
100.29 mins
BSTAR
0.0014328
Loading maneuver chart data...
Computing Atmospheric mass density...
Loading historical data...
Loading historical data...
Loading historical data...
Loading historical data...
Loading historical data...
Loading historical data...
Loading historical data...

Documentation

Showing up to 5 results
|